2023/08/03 00:00:00,79.3,21.8
2023/08/03 00:10:00,79.7,21.9
2023/08/03 00:20:00,80.3,21.6
2023/08/03 00:30:00,80.7,21.8
2023/08/03 00:40:00,80.9,21.9
2023/08/03 00:50:00,81.0,21.7
2023/08/03 01:00:00,81.0,21.7
2023/08/03 01:10:00,80.9,21.9
2023/08/03 01:20:00,80.9,22.0
2023/08/03 01:30:00,81.0,21.9
2023/08/03 01:40:00,81.0,21.6
2023/08/03 01:50:00,81.0,21.8
2023/08/03 02:00:00,81.0,21.8
2023/08/03 02:10:00,81.0,21.8
2023/08/03 02:20:00,44.6,21.7
2023/08/03 02:30:00,81.2,21.9
2023/08/03 02:40:00,81.2,21.7
2023/08/03 02:50:00,81.2,21.5
2023/08/03 03:00:00,81.2,21.5
2023/08/03 03:10:00,81.2,21.5
2023/08/03 03:20:00,81.2,21.6
2023/08/03 03:30:00,81.2,21.5
2023/08/03 03:40:00,81.2,21.5
2023/08/03 03:50:00,81.2,21.6
2023/08/03 04:00:00,81.2,21.5
2023/08/03 04:10:00,81.3,21.4
2023/08/03 04:20:00,81.3,21.7
2023/08/03 04:30:00,81.3,21.8
2023/08/03 04:40:00,81.4,21.6
2023/08/03 04:50:00,81.4,21.5
2023/08/03 05:00:00,81.5,21.2
2023/08/03 05:10:00,81.5,21.4
2023/08/03 05:20:00,81.5,21.2
2023/08/03 05:30:00,81.7,21.2
2023/08/03 05:40:00,81.9,21.4
2023/08/03 05:50:00,82.1,21.6
2023/08/03 06:00:00,82.0,21.7
2023/08/03 06:10:00,81.7,21.7
2023/08/03 06:20:00,81.7,21.9
2023/08/03 06:30:00,81.9,22.1
2023/08/03 06:40:00,82.0,22.6
2023/08/03 06:50:00,82.0,22.6
2023/08/03 07:00:00,82.0,22.8
2023/08/03 07:10:00,82.1,23.0
2023/08/03 07:20:00,82.1,23.3
2023/08/03 07:30:00,82.1,23.7
2023/08/03 07:40:00,82.2,24.0
2023/08/03 07:50:00,26.7,27.2
2023/08/03 08:00:00,---,29.4
2023/08/03 08:10:00,---,30.2
2023/08/03 08:20:00,84.8,31.2
2023/08/03 08:30:00,84.3,30.8
2023/08/03 08:40:00,83.9,31.6
2023/08/03 08:50:00,83.7,29.8
2023/08/03 09:00:00,83.0,29.0
2023/08/03 09:10:00,81.9,28.0
2023/08/03 09:20:00,---,28.6
2023/08/03 09:30:00, 0.0,28.9
2023/08/03 09:40:00,---,29.2
2023/08/03 09:50:00,---,29.8
2023/08/03 10:00:00, 0.0,30.0
2023/08/03 10:10:00,29.8,31.0
2023/08/03 10:20:00,28.5,31.4
2023/08/03 10:30:00,27.9,31.1
2023/08/03 10:40:00,34.9,31.8
2023/08/03 10:50:00,---,32.1
2023/08/03 11:00:00,61.2,31.8
2023/08/03 11:10:00,---,31.9
2023/08/03 11:20:00, 0.0,32.4
2023/08/03 11:30:00,---,31.9
2023/08/03 11:40:00,---,33.2
2023/08/03 11:50:00,---,33.4
2023/08/03 12:00:00,---,33.6
2023/08/03 12:10:00, 0.0,31.8
2023/08/03 12:20:00, 9.3,31.1
2023/08/03 12:30:00, 0.0,30.9
2023/08/03 12:40:00,---,31.8
2023/08/03 12:50:00,---,31.5
2023/08/03 13:00:00,---,31.5
2023/08/03 13:10:00,90.4,32.2
2023/08/03 13:20:00,---,31.9
2023/08/03 13:30:00,62.7,33.1
2023/08/03 13:40:00,56.0,33.9
2023/08/03 13:50:00,---,34.5
2023/08/03 14:00:00,67.0,34.4
2023/08/03 14:10:00,65.7,32.9
2023/08/03 14:20:00,---,31.8
2023/08/03 14:30:00,---,32.2
2023/08/03 14:40:00,57.8,33.6
2023/08/03 14:50:00,---,33.1
2023/08/03 15:00:00,---,33.0
2023/08/03 15:10:00,---,34.2
2023/08/03 15:20:00,83.2,33.5
2023/08/03 15:30:00,82.9,31.9
2023/08/03 15:40:00,83.3,33.5
2023/08/03 15:50:00,83.0,33.1
2023/08/03 16:00:00,83.3,33.4
2023/08/03 16:10:00,83.4,33.7
2023/08/03 16:20:00,82.9,33.4
2023/08/03 16:30:00,82.5,31.7
2023/08/03 16:40:00,82.6,30.3
2023/08/03 16:50:00,82.7,30.2
2023/08/03 17:00:00,81.8,29.3
2023/08/03 17:10:00, 0.0,29.3
2023/08/03 17:20:00, 0.0,28.7
2023/08/03 17:30:00, 0.0,28.1
2023/08/03 17:40:00,---,27.3
2023/08/03 17:50:00, 0.0,26.8
2023/08/03 18:00:00,---,26.6
2023/08/03 18:10:00, 0.0,26.3
2023/08/03 18:20:00, 0.0,25.8
2023/08/03 18:30:00, 0.0,25.3
2023/08/03 18:40:00, 9.3,25.2
2023/08/03 18:50:00, 0.0,24.8
2023/08/03 19:00:00, 0.0,24.8
2023/08/03 19:10:00, 0.0,24.6
2023/08/03 19:20:00, 0.0,24.2
2023/08/03 19:30:00, 0.0,24.0
2023/08/03 19:40:00, 0.0,23.8
2023/08/03 19:50:00, 0.0,23.7
2023/08/03 20:00:00, 0.0,23.5
2023/08/03 20:10:00, 0.0,23.4
2023/08/03 20:20:00, 0.0,23.3
2023/08/03 20:30:00, 0.0,23.0
2023/08/03 20:40:00, 0.0,23.0
2023/08/03 20:50:00, 0.0,23.0
2023/08/03 21:00:00, 0.0,22.6
2023/08/03 21:10:00, 0.0,22.8
2023/08/03 21:20:00, 0.0,22.6
2023/08/03 21:30:00, 0.0,22.6
2023/08/03 21:40:00, 0.0,22.5
2023/08/03 21:50:00, 0.0,22.2
2023/08/03 22:00:00, 0.0,22.1
2023/08/03 22:10:00, 0.0,22.1
2023/08/03 22:20:00, 0.0,21.9
2023/08/03 22:30:00, 0.0,21.9
2023/08/03 22:40:00, 0.0,21.8
2023/08/03 22:50:00, 0.0,21.8
2023/08/03 23:00:00, 0.0,21.9
2023/08/03 23:10:00, 0.0,21.8
2023/08/03 23:20:00, 0.0,21.7
2023/08/03 23:30:00, 0.0,21.6
2023/08/03 23:40:00, 0.0,21.8
2023/08/03 23:50:00, 0.1,21.8
